Russell, KS

9:04 PM CST on January 20, 2017 (GMT -0600)
Russell Municipal

Weather History for KRSL - October, 2013

Change the Weather History Date:

Monday, October 7, 2013

  Actual Average Record
Temperature  
Mean Temperature 58 °F -  
Max Temperature 78 °F 73 °F 94 °F (1949)
Min Temperature 37 °F 45 °F 22 °F (1952)
Degree Days  
Heating Degree Days 8    
Growing Degree Days 8 (Base 50)    
Moisture  
Dew Point 35 °F    
Average Humidity 48    
Maximum Humidity 83    
Minimum Humidity 21    
Precipitation  
Precipitation 0.00 in - - ()
Sea Level Pressure  
Sea Level Pressure 30.09 in    
Wind  
Wind Speed 7 mph (SSW)    
Max Wind Speed 18 mph    
Max Gust Speed 21 mph    
Visibility 10 miles    
Events      
Averages and records for this station are not official NWS values.
T = Trace of Precipitation, MM = Missing Value Source: NWS Daily Summary

Daily Weather History Graph

Daily Weather History Graph

Search for Another Location

Airport or City:

Trip Planner

Search our weather history database for the weather conditions in past years. The results will help you decide how hot, cold, wet, or windy it might be!

Date:

Astronomy

Oct. 07, 2013 Rise Set
Actual Time 7:37 AM CDT 7:08 PM CDT
Civil Twilight 7:10 AM CDT 7:34 PM CDT
Nautical Twilight 6:39 AM CDT 8:05 PM CDT
Astronomical Twilight 6:08 AM CDT 8:36 PM CDT
Moon 10:26 AM CDT (10/7) 8:56 PM CDT (10/7)
Length of Visible Light 12h 24m
Length of Day
11h 31m
Waxing Crescent, 9% of the Moon is Illuminated
Oct 7
Waxing Crescent
Oct 11
First Quarter
Oct 18
Full
Oct 26
Last Quarter
Nov 3
New

Hourly Weather History & Observations

Time (CDT) Temp. Windchill Dew Point Humidity Pressure Visibility Wind Dir Wind Speed Gust Speed Precip Events Conditions
12:53 AM 46.9 °F - 32.0 °F 56% 30.11 in 10.0 mi Calm Calm - N/A   Clear
1:53 AM 44.1 °F 40.1 °F 33.1 °F 65% 30.12 in - NW 6.9 mph - N/A   Clear
2:53 AM 42.1 °F 39.2 °F 33.1 °F 70% 30.12 in - West 4.6 mph - N/A   Clear
3:53 AM 39.0 °F 35.7 °F 32.0 °F 76% 30.13 in - West 4.6 mph - N/A   Clear
4:53 AM 37.9 °F 33.5 °F 32.0 °F 79% 30.13 in - West 5.8 mph - N/A   Clear
5:53 AM 39.9 °F 35.8 °F 33.1 °F 77% 30.13 in - West 5.8 mph - N/A   Clear
6:53 AM 37.9 °F 32.1 °F 33.1 °F 83% 30.15 in - WSW 8.1 mph - N/A   Clear
7:53 AM 37.9 °F 32.7 °F 33.1 °F 83% 30.17 in - West 6.9 mph - N/A   Clear
8:53 AM 44.1 °F 41.5 °F 36.0 °F 73% 30.18 in - SW 4.6 mph - N/A   Clear
9:53 AM 54.0 °F - 37.9 °F 55% 30.17 in 10.0 mi SW 6.9 mph - N/A   Clear
10:53 AM 62.1 °F - 35.1 °F 37% 30.16 in 10.0 mi SW 12.7 mph - N/A   Clear
11:53 AM 66.9 °F - 32.0 °F 27% 30.14 in 10.0 mi SW 12.7 mph - N/A   Clear
12:53 PM 72.0 °F - 32.0 °F 23% 30.11 in 10.0 mi SW 10.4 mph - N/A   Clear
1:53 PM 75.0 °F - 35.1 °F 23% 30.08 in 10.0 mi SSW 9.2 mph - N/A   Clear
2:53 PM 77.0 °F - 36.0 °F 23% 30.05 in 10.0 mi SSW 11.5 mph - N/A   Clear
3:53 PM 77.0 °F - 35.1 °F 22% 30.03 in 10.0 mi South 8.1 mph 20.7 mph N/A   Clear
4:53 PM 78.1 °F - 35.1 °F 21% 30.01 in 10.0 mi South 11.5 mph - N/A   Clear
5:53 PM 77.0 °F - 35.1 °F 22% 30.00 in 10.0 mi South 13.8 mph - N/A   Clear
6:53 PM 70.0 °F - 37.0 °F 30% 30.01 in 10.0 mi SSE 10.4 mph - N/A   Clear
7:53 PM 64.0 °F - 37.9 °F 38% 30.01 in 10.0 mi SSE 12.7 mph - N/A   Clear
8:53 PM 63.0 °F - 37.9 °F 40% 30.02 in 10.0 mi South 15.0 mph - N/A   Clear
9:53 PM 61.0 °F - 36.0 °F 39% 30.02 in 10.0 mi South 15.0 mph - N/A   Clear
10:53 PM 60.1 °F - 35.1 °F 39% 30.01 in 10.0 mi South 18.4 mph - N/A   Clear
11:53 PM 57.9 °F - 35.1 °F 42% 29.99 in 10.0 mi South 16.1 mph - N/A   Clear